Notices

What's New in latest Release from April 7th, 2021:

- Updated Glossary, including Speed of Maximum Gust, and Total Hourly Precipitation

- Updated national and regional climate services offices contacts and prices information

- Addition of station inventory lists for 1981-2010, 1971-2000, and 1961-1990 Normals.

If you haven't already, please take our survey and provide feedback about our website: https://eccc.sondage-survey.ca/f/LanguageSelection.aspx?s=442ca660-fcf1-47c0-95a9-59707d6fd709

Hourly Data Report for March 23, 2021

OTTAWA INTL A
ONTARIO
Current Station Operator: NAVCAN

45°19'00.000" N
75°40'00.000" W
114.90 m
6106001
71628
YOW

Download Data

Hourly Data (March 2021)
Hourly Data Report for March 23, 2021
TIME
LST
Temp Definition
°C
Dew Point Definition
°C
Rel Hum Definition
%
Precip. Amount Definition
mm

Wind Dir Definition
10's deg

Wind Spd Definition
km/h
Visibility Definition
km
Stn Press Definition
kPa
Hmdx Definition


Wind Chill Definition


Weather Definition


00:00 7.0 -7.4 35   18 9 24.1 100.85     LegendNANA
01:00 6.8 -7.2 36   18 11 24.1 100.86     Clear
02:00 6.8 -7.0 37   17 7 24.1 100.86     LegendNANA
03:00 6.0 -6.5 40   17 9 24.1 100.84     LegendNANA
04:00 5.1 -5.9 45   19 8 24.1 100.86     Mostly Cloudy
05:00 3.0 -5.5 54   28 4 24.1 100.91     LegendNANA
06:00 -0.1 -5.6 67   9 4 24.1 100.92   -1 LegendNANA
07:00 3.1 -3.5 62   8 4 24.1 100.97     Mainly Clear
08:00 7.5 -5.1 40   21 7 24.1 100.98     LegendNANA
09:00 10.0 -4.2 37   21 9 24.1 100.99     LegendNANA
10:00 13.1 -3.1 32   19 10 24.1 100.98     Mainly Clear
11:00 15.5 -2.3 29   18 10 24.1 100.96     LegendNANA
12:00 17.7 -1.6 27   16 14 24.1 100.90     LegendNANA
13:00 18.8 -3.4 22   20 14 24.1 100.84     Mostly Cloudy
14:00 19.8 -3.8 20   18 17 24.1 100.78     LegendNANA
15:00 19.5 -4.7 19   18 19 24.1 100.72     LegendNANA
16:00 18.4 -5.6 19   18 13 24.1 100.68     Mostly Cloudy
17:00 17.6 -4.5 22   20 7 24.1 100.66     LegendNANA
18:00 13.9 -4.7 27   16 4 24.1 100.65     LegendNANA
19:00 12.6 -3.4 33   36 3 24.1 100.66     Mostly Cloudy
20:00 10.6 -1.0 44   8 8 24.1 100.67     LegendNANA
21:00 9.0 -0.3 52   13 7 24.1 100.72     LegendNANA
22:00 6.2 -0.1 64   4 10 24.1 100.63     Mostly Cloudy
23:00 5.6 -0.8 63   7 10 24.1 100.60     LegendNANA

Notes on Data Quality.

Legend

  • E = Estimated
  • M = Missing
  • NA = Not Available*
  • [empty] = Indicates an unobserved value
Date modified: